Content
SEND FEEDBACK

Daily
Averages
Monthly
Summary
United States of America

ANN ARBOR, MICHIGAN


Home > North America > United States > Michigan
Elevation: 759 feet     Latitude: 42 17N     Longitude: 083 43W

WEATHER
 
SELECT A DAY
Number of Records: 202,962;   Date Range: 1/1/95 - 7/7/14
 
SHARE

PRINT THIS DATA

[ ← Previous Day ]
WEATHER ALMANAC - JANUARY 2, 2013
[ Next Day → ]
[ °C ]   °F
Weather ElementAverageHighLow
Temperature14.9 °F25 °F (12:53 pm)1.9 °F (5:53 am)
Dewpoint10 °F17.1 °F (1:53 pm)-0.9 °F (5:53 am)
Humidity81.1 %92 % (4:27 am)69 % (12:53 pm)
Barometer30.16 in30.22 in (6:53 pm)30.07 in (1:30 am)
Wind Speed4 mph11.5 mph (11:53 am)
Weather ElementAverage
Visibility9.8 mi
Wind DirectionSSE (163.2 °)

Weather ElementTotal
Precipitation---
Heating Degree Days51.6 (Base 65)
Averaged from 28 records on January 2, 2013
WEATHER CONDITIONS BREAKOUT
WIND DIRECTION BREAKOUT
WEATHER BY HOUR - JANUARY 2, 2013
[ °C ]   °F
Local TimeTemperatureDewpointHumidityBarometerVisibilityWind DirectionWind SpeedGust SpeedPrecipitationEventsConditions
1:30 AM3.2 °F-0.4 °F85 %30.07 in10.0 miWSW (240°)4.6 mphMostly Cloudy
1:53 AM6.1 °F1.9 °F83 %30.12 in10.0 miWSW (240°)4.6 mphOvercast
2:44 AM12.2 °F8.6 °F85 %30.07 in10.0 miCalmScattered Clouds
2:53 AM12.0 °F8.1 °F84 %30.12 in10.0 miWSW (240°)4.6 mphMostly Cloudy
3:53 AM12.0 °F9.0 °F88 %30.13 in10.0 miWSW (240°)4.6 mphOvercast
4:27 AM3.2 °F1.4 °F92 %30.08 in10.0 miCalmScattered Clouds
4:53 AM3.9 °F0.0 °F84 %30.14 in10.0 miWSW (240°)3.5 mphMostly Cloudy
5:18 AM6.8 °F3.2 °F85 %30.08 in10.0 miCalmScattered Clouds
5:53 AM1.9 °F-0.9 °F88 %30.15 in10.0 miCalmClear
7:51 AM6.8 °F5.0 °F92 %30.11 in10.0 miCalmMostly Cloudy
7:53 AM5.0 °F3.0 °F92 %30.17 in10.0 miCalmMostly Cloudy
8:53 AM3.0 °F-0.9 °F84 %30.16 in10.0 miCalmMostly Cloudy
9:33 AM8.6 °F6.8 °F92 %30.12 in10.0 miCalmMostly Cloudy
9:53 AM10.9 °F9.0 °F92 %30.18 in10.0 miWest (260°)3.5 mphOvercast
10:53 AM18.0 °F12.9 °F81 %30.21 in10.0 miSW (230°)3.5 mphOvercast
11:53 AM24.1 °F16.0 °F71 %30.19 in10.0 miWest (280°)11.5 mphOvercast
12:53 PM25.0 °F16.0 °F69 %30.18 in10.0 miWNW (300°)6.9 mphOvercast
1:53 PM25.0 °F17.1 °F72 %30.18 in10.0 miWNW (290°)6.9 mphOvercast
2:53 PM25.0 °F17.1 °F72 %30.17 in10.0 miWNW (290°)4.6 mphOvercast
3:53 PM25.0 °F17.1 °F72 %30.17 in10.0 miWSW (250°)4.6 mphOvercast
4:53 PM25.0 °F17.1 °F72 %30.19 in10.0 miVariable4.6 mphOvercast
5:53 PM23.0 °F16.0 °F74 %30.20 in10.0 miSouth (190°)8.1 mphOvercast
6:53 PM23.0 °F16.0 °F74 %30.22 in10.0 miSSW (210°)6.9 mphOvercast
7:53 PM23.0 °F16.0 °F74 %30.22 in10.0 miSW (220°)6.9 mphOvercast
8:53 PM21.9 °F16.0 °F78 %30.21 in9.0 miSSW (210°)4.6 mphOvercast
9:53 PM21.9 °F16.0 °F78 %30.20 in8.0 miSSW (210°)5.8 mphOvercast
10:53 PM21.9 °F16.0 °F78 %30.19 in9.0 miSSW (210°)4.6 mphOvercast
11:53 PM21.0 °F16.0 °F81 %30.19 in9.0 miSW (220°)5.8 mphOvercast
Hourly data recorded from KARB, located miles away from Ann Arbor, Michigan







STORIES FROM OUR PARTNERS